SCP
0 0 0 0 0 0 0 0 0 0 0 0 0 0 0 0 0 0 0 0 0 0 0 0 0 0 0 0 0 0 0 0 0 0 0 0 0 0 0 0 0 0 0 0 0 0 0 0 0 0 0 0 0 0
0 0 0 0 0 0 0 0 0 0 0 0 0 0 0 0 0 0 0 0 0 0 0 0 0 0 0 0 0 0 0 0 0 0 0 0 0 0 0 0 0 0 0 0 0 0 0 0 0 0 0 0 0 0
0 0 0 0 0 0 0 0 0 0 0 0 0 0 0 0 0 0 0 0 0 0 0 0 0 0 0 0 0 0 0 0 0 0 0 0 0 0 0 0 0 0 0 0 0 0 0 0 0 0 0 0 0 0
0 0 0 0 0 0 0 0 0 0 0 0 0 0 0 0 0 0 0 0 0 0 0 0 0 0 0 0 0 0 0 0 0 0 0 0 0 0 0 0 0 0 0 0 0 0 -0 0 0 0 0 0 0 -0
0 0 0 0 0 0 0 0 0 0 0 0 0 0 0 0 0 0 0 0 0 0 0 0 0 0 0 0 0 0 0 0 0 0 0 0 0 0 0 0 0 0 0 0 -0 -0 0 0 0 0 0 -0 -0 0
0 0 0 0 0 0 0 0 0 0 0 0 0 0 0 0 0 0 0 0 0 0 0 0 0 0 0 0 0 0 0 0 0 0 0 0 0 0 0 0 0 0 0 0 0 0 0 0 0 0 0 0 0 0
0 0 0 0 0 0 0 0 0 0 0 0 0 0 0 0 0 0 0 0 0 0 0 0 0 0 0 0 0 0 0 0 0 0 0 0 0 0 0 0 0 -0 -0 0 0 0 0 0 0 0 -0 0 0 0
0 0 0 0 0 0 0 0 0 0 0 0 0 0 0 0 0 0 0 0 0 0 0 0 0 0 0 0 0 0 0 0 0 0 0 0 0 0 0 0 0 -0 -0 0 0 0 0 0 0 0 0 0 0 0
0 0 0 0 0 0 0 0 0 0 0 0 0 0 0 0 0 0 0 0 0 0 0 0 0 0 0 0 0 0 0 0 0 0 0 0 0 0 0 0 -0 -0 -0 -0 0 0 0 0 0 0 0 -0 0 0
0 0 0 0 0 0 0 0 0 0 0 0 0 0 0 0 0 0 0 0 0 0 0 0 0 0 0 0 0 0 0 0 0 0 0 0 0 0 0 0 -0 -0 -0 -0 -0 0 0 -0 -0 -0 -0 0 0 0
0 0 0 0 0 0 0 0 0 0 0 0 0 0 0 0 0 0 0 0 0 0 0 0 0 0 0 0 0 0 0 0 0 0 0 0 0 0 0 -0 -0 -0 -0 -0 0 0 0 0 -0 -0 -0 -0 0 0
0 0 0 0 0 0 0 0 0 0 0 0 0 0 0 0 0 0 0 0 0 0 0 0 0 0 0 0 0 0 0 0 0 0 0 0 0 0 0 -0 -0 -0 -0 0 0 0 0 0 -0 -0 -0 -0 0 0
0 0 0 0 0 0 0 0 0 0 0 0 0 0 0 0 0 0 0 0 0 0 0 0 0 0 0 0 0 0 0 0 0 0 0 0 0 0 0 -0 -0 -0 -0 -0 0 0 0 0 -0 -0 -0 -0 0 0
0 0 0 0 0 0 0 0 0 0 0 0 0 0 0 0 0 0 0 0 0 0 0 0 0 0 0 0 0 0 0 0 0 0 0 0 0 0 -0 -0 -0 -0 -0 -0 0 0 0 0 -0 -0 -0 -0 -0 0
0 0 0 0 0 0 0 0 0 0 0 0 0 0 0 0 0 0 0 0 0 0 0 0 0 0 0 0 0 0 0 0 0 0 0 0 0 0 -0 -0 -0 -0 -0 -0 0 0 0 -0 -0 -0 -0 -0 -0 -0
0 0 0 0 0 0 0 0 0 0 0 0 0 0 0 0 0 0 0 0 0 0 0 0 0 0 0 0 0 0 0 0 0 0 0 0 0 0 0 -0 0 -0 -0 -0 0 0 0 0 -0 -0 -0 -0 -0 0
0 0 0 0 0 0 0 0 0 0 0 0 0 0 0 0 0 0 0 0 0 0 0 0 0 0 0 0 0 0 0 0 0 0 0 0 0 0 0 -0 -0 -0 -0 -0 0 0 0 0 -0 -0 -0 0 0 -0
0 0 0 0 0 0 0 0 0 0 0 0 0 0 0 0 0 0 0 0 0 0 0 0 0 0 0 0 0 0 0 0 0 0 0 0 0 0 0 -0 -0 -0 -0 -0 0 -0 0 0 -0 -0 -0 0 0 0
0 0 0 0 0 0 0 0 0 0 0 0 0 0 0 0 0 0 0 0 0 0 0 0 0 0 0 0 0 0 0 0 0 0 0 0 0 0 0 -0 -0 0 0 -0 -0 -0 0 0 -0 -0 -0 -0 0 0
0 0 0 0 0 0 0 0 0 0 0 0 0 0 0 0 0 0 0 0 0 0 0 0 0 0 0 0 0 0 0 0 0 0 0 0 0 0 0 -0 0 0 0 -0 0 -0 -0 -0 -0 -0 -0 0 0 0
0 0 0 0 0 0 0 0 0 0 0 0 0 0 0 0 0 0 0 0 0 0 0 0 0 0 0 0 0 0 0 0 0 0 -0 0 0 -0 0 0 0 -0 0 0 -0 -0 -0 -0 -0 -0 0 0 0 0
0 0 0 0 0 0 0 0 0 0 0 0 0 0 0 0 0 0 0 0 0 0 0 0 0 0 0 0 0 0 0 0 0 0 0 0 0 0 0 0 0 -0 -0 -0 -0 -0 -0 -0 -0 -0 0 0 0 0
0 0 0 0 0 0 0 0 0 0 0 0 0 0 0 0 0 0 0 0 0 0 0 0 0 0 0 -0 -0 -0 -0 -0 0 0 0 -0 0 0 0 0 0 0 0 0 0 0 -0 -0 -0 -0 0 0 0 0
0 0 0 0 0 0 0 0 0 0 0 0 0 0 0 0 0 0 0 0 0 0 0 0 0 0 0 -0 0 -0 0 0 0 0 0 0 0 0 0 0 0 0 0 0 0 0 0 0 0 -0 -0 0 0 0
0 0 0 0 0 0 0 0 0 0 0 0 0 0 0 0 0 0 0 0 0 0 0 0 0 0 -0 0 0 -0 -0 0 0 0 0 0 0 0 0 0 0 0 0 0 0 0 0 0 0 0 0 -0 -0 0
0 0 0 0 0 -0 -0 0 -0 -0 0 0 0 0 0 0 0 0 0 0 0 0 0 0 0 0 -0 -0 0 0 0 0 0 0 0 0 0 0 0 0 0 0 0 0 0 0 0 0 0 0 0 0 0 -0
0 0 -0 0 -0 -0 -0 -0 0 -0 -0 -0 0 0 0 -0 0 0 0 0 0 0 0 0 0 0 0 0 0 0 0 0 0 0 0 0 0 0 0 0 0 0 0 0 0 0 0 0 0 0 0 0 0 0
0 -0 0 -0 -0 0 0 0 0 -0 0 0 0 0 0 0 0 -0 -0 -0 -0 0 0 0 0 0 0 0 0 0 0 0 0 0 0 0 0 0 0 0 0 0 0 0 0 0 0 0 0 0 0 0 0 0
0 -0 0 0 0 0 0 0 0 0 0 0 0 0 0 0 -0 -0 -0 -0 -0 -0 -0 -0 -0 -0 -0 -0 -0 -0 -0 -0 -0 0 0 0 0 0 0 0 0 0 0 -0 0 -0 0 0 0 0 0 0 0 0
0 0 0 0 0 0 0 0 0 0 0 0 0 0 0 0 0 0 -0 -0 -0 0 0 0 0 -0 -0 -0 -0 -0 -0 -0 -0 0 0 0 0 0 0 0 0 0 0 -0 0 0 0 0 0 0 0 0 0 0
0 0 0 0 0 0 0 0 0 0 0 0 0 0 0 0 0 0 0 0 0 0 0 0 0 0 0 0 0 0 0 0 0 0 0 0 0 0 0 0 0 0 0 -0 -0 0 0 0 0 0 0 0 0 0
0 0 0 0 0 0 0 0 0 0 0 0 0 0 0 0 0 0 0 0 0 0 0 0 0 0 0 0 0 0 0 0 0 0 0 0 0 0 0 0 0 0 0 -0 0 -0 0 -0 0 0 0 0 0 0
0 0 0 0 0 0 0 0 0 0 0 0 0 0 0 0 0 0 0 0 0 0 0 0 0 0 0 0 0 0 0 0 0 0 0 0 0 0 0 0 0 0 0 0 0 -0 -0 -0 -0 -0 -0 -0 -0 -0
Wind_Speed_500mb
56 53 46 41 41 37 35 32 29 26 27 27 28 26 22 22 28 30 26 22 19 11 25 14 12 13 11 7 5 6 10 2 4 2 3 2 5 4 9 13 21 12 9 7 8 10 12 5 39 4 24 66 65 61
57 55 52 46 44 43 35 33 25 24 28 23 28 26 24 24 24 29 26 27 27 19 22 41 37 32 36 29 19 6 4 4 4 1 3 2 8 9 12 10 2 8 12 9 10 15 51 63 43 63 56 63 62 53
54 56 41 40 42 44 36 31 25 23 23 22 27 28 21 27 27 26 26 27 31 17 25 8 4 3 8 9 12 12 9 10 7 8 2 4 9 1 8 8 12 8 12 9 16 17 33 54 61 55 68 66 61 67
59 56 52 49 46 36 35 30 28 27 31 25 29 25 20 23 28 29 29 29 20 10 7 6 6 34 11 5 20 33 38 18 15 6 4 6 9 12 7 14 15 21 13 14 24 43 48 36 56 66 71 61 67 66
61 53 52 50 46 40 36 34 35 31 32 27 28 24 18 19 22 26 29 14 3 7 8 20 24 8 2 12 16 20 32 36 16 8 9 9 10 8 8 6 8 9 8 5 7 43 38 54 69 63 59 64 67 69
62 65 63 54 50 48 45 44 39 38 39 34 29 26 18 15 17 20 5 4 3 18 8 7 10 3 8 16 7 9 19 25 17 13 11 11 14 9 5 6 8 8 31 38 23 50 50 60 60 65 63 64 69 71
66 62 62 63 55 54 52 52 43 43 45 36 27 21 19 15 14 7 8 9 18 13 6 12 13 7 17 12 9 5 4 12 13 9 10 10 9 12 6 8 18 40 44 46 42 43 49 52 67 65 63 69 72 63
57 54 63 65 66 61 58 51 41 46 42 33 21 19 15 18 16 5 3 2 0 5 5 6 8 11 16 9 6 5 3 8 11 7 5 6 4 6 5 17 34 43 44 31 35 45 45 57 63 65 70 67 67 69
48 62 63 59 67 66 56 47 45 42 39 26 20 13 13 12 6 11 9 5 9 6 5 4 5 6 15 6 8 5 4 5 4 6 4 4 1 7 9 29 37 45 34 42 47 48 48 59 61 68 66 67 60 62
51 49 67 62 56 55 50 49 49 50 37 27 18 10 8 11 11 4 0 4 8 8 8 8 7 6 8 7 5 7 2 4 4 1 5 2 5 16 18 30 35 39 40 44 41 49 52 59 58 69 63 64 57 55
56 61 58 57 57 58 54 57 57 48 36 27 17 11 16 15 8 4 5 7 9 7 12 11 18 9 6 6 6 2 5 3 5 2 4 1 5 7 25 34 39 40 41 45 47 49 49 52 54 63 59 65 51 49
53 54 51 57 61 59 59 60 53 44 27 25 20 19 16 10 6 5 5 4 9 6 11 10 9 13 6 8 7 4 4 3 7 2 4 4 5 19 29 38 43 41 42 51 52 47 50 48 51 57 51 54 45 46
45 53 57 69 62 59 53 43 40 34 32 31 11 11 9 6 6 12 15 9 7 11 13 13 7 6 5 7 8 4 6 8 3 3 3 7 13 26 32 36 40 46 50 57 51 47 48 46 61 51 48 40 43 46
37 47 55 62 61 54 41 44 47 49 33 10 14 8 11 10 12 10 9 6 8 9 15 10 5 4 3 6 3 7 2 3 5 5 7 4 15 27 31 33 36 48 60 59 45 45 44 41 63 53 49 33 42 43
60 59 58 50 41 45 49 50 50 51 14 12 12 10 14 12 7 7 14 5 6 13 13 7 4 3 4 6 6 5 6 8 6 6 3 8 25 30 32 38 44 52 62 55 46 42 44 43 58 47 50 35 37 37
60 53 46 41 41 47 50 50 50 37 8 8 8 6 8 7 13 13 12 13 16 15 13 5 3 4 10 6 8 12 6 8 0 4 6 20 26 32 37 42 46 54 62 54 41 40 43 44 56 48 44 36 36 40
55 47 49 46 50 53 50 48 32 14 11 8 9 17 13 5 8 12 20 19 24 16 7 5 7 11 3 7 8 7 6 1 4 2 14 21 31 38 41 44 48 55 58 48 47 40 45 42 56 59 40 40 44 39
45 45 54 58 60 52 45 18 13 13 10 14 9 11 21 18 15 16 26 23 20 15 16 10 7 9 10 10 15 4 7 6 4 12 25 32 33 37 41 47 46 50 53 42 39 37 44 41 50 47 45 26 42 48
43 48 56 57 58 41 13 16 8 8 15 7 16 22 18 16 28 27 24 22 28 17 10 10 14 14 21 23 28 22 15 11 16 31 42 44 46 45 41 41 40 39 45 36 33 32 39 38 42 46 45 24 33 46
35 46 52 52 49 11 10 8 13 6 7 8 14 14 14 15 22 26 29 34 37 18 19 14 25 39 25 25 23 23 24 25 33 40 47 42 41 47 39 39 37 32 43 38 26 25 34 37 39 45 43 36 29 43
47 55 64 58 36 9 8 11 8 8 7 9 8 11 10 19 19 22 27 33 26 21 26 46 51 52 47 48 47 45 48 50 47 40 39 41 42 43 41 35 29 28 35 32 22 18 29 35 38 37 39 37 34 39
41 58 47 43 7 9 6 12 6 5 7 7 7 9 12 14 18 19 20 25 23 51 55 54 57 55 51 51 57 59 58 53 52 48 39 38 41 38 35 31 27 24 29 27 12 14 21 28 37 34 31 42 42 38
49 52 14 11 7 10 4 11 7 7 7 5 5 7 8 9 9 11 10 16 20 40 47 52 59 55 54 51 47 50 49 46 41 38 36 34 33 32 32 24 18 21 16 20 9 11 15 20 29 37 32 33 37 40
33 12 8 13 8 7 8 8 8 7 7 7 5 6 7 8 6 9 8 14 29 33 34 31 28 31 29 32 35 34 32 35 34 33 32 31 30 29 21 13 14 16 13 14 2 8 9 16 22 29 33 30 35 36
9 6 7 7 9 10 10 8 10 10 8 12 7 8 7 8 6 7 8 14 16 21 18 23 28 31 32 24 22 24 14 11 16 23 22 26 26 17 12 13 13 4 10 12 4 9 10 12 18 23 29 32 33 37
5 13 18 20 12 10 12 6 11 14 7 9 11 7 6 6 6 11 6 7 12 13 14 12 27 32 34 30 20 17 10 2 4 4 8 11 9 2 2 7 6 8 8 5 14 12 13 15 17 19 25 30 33 34
5 10 12 16 9 9 8 12 11 7 8 10 6 8 7 9 12 8 6 6 2 6 2 4 11 23 21 24 25 28 15 4 2 4 10 11 7 7 5 3 11 5 9 3 12 15 16 15 19 20 20 27 31 33
14 8 13 16 16 17 7 5 6 9 8 12 7 12 8 8 4 1 1 5 9 10 9 8 11 17 20 26 29 26 22 18 14 12 12 12 15 16 9 5 2 6 13 16 20 18 18 15 19 21 21 22 27 29
11 11 15 14 16 14 19 17 14 17 17 17 6 6 7 8 10 21 34 51 70 65 58 49 44 39 38 36 34 33 33 30 27 23 22 20 13 14 17 15 10 6 3 13 23 19 15 14 16 18 20 24 26 25
12 24 14 14 11 13 18 29 15 18 22 27 29 30 39 46 59 60 45 31 38 36 32 35 39 47 51 47 48 49 49 46 42 36 32 28 23 18 16 22 11 9 7 10 23 21 22 19 17 20 21 20 21 20
8 20 12 11 9 17 34 40 39 35 37 34 37 37 40 38 23 18 36 34 11 8 6 18 23 23 30 40 49 51 54 53 49 39 32 27 21 18 20 18 19 14 17 20 36 32 26 21 20 19 20 16 18 17
12 16 8 6 7 8 2 7 9 7 5 3 1 3 5 5 8 21 46 38 32 25 16 15 12 19 23 20 19 19 20 20 25 29 29 30 27 25 28 23 20 20 29 27 25 25 23 22 20 19 17 13 9 9
10 11 13 7 7 4 8 7 4 4 8 9 16 16 16 9 12 36 40 40 40 36 30 24 23 29 30 25 21 20 23 25 28 31 31 26 25 30 29 24 25 24 26 28 26 21 19 20 19 20 18 14 10 11
Wind_Direction_500mb
248 252 255 263 264 257 269 280 284 294 294 305 308 314 323 340 345 346 347 344 343 287 284 253 246 251 257 222 270 332 299 167 284 326 305 43 281 323 287 282 298 293 298 274 265 260 277 14 328 290 297 301 301 299
248 250 249 251 253 248 263 268 270 286 295 298 292 299 310 322 336 338 339 334 328 296 274 292 287 276 253 249 258 253 271 283 293 255 235 258 265 270 272 281 216 262 233 287 230 269 295 304 305 303 305 298 300 310
243 242 245 245 247 247 250 245 257 267 276 288 285 287 301 318 327 335 335 332 333 312 308 309 118 154 354 288 230 227 238 210 233 226 310 282 273 144 274 256 299 270 266 238 276 271 290 310 308 311 310 311 314 316
241 243 248 249 246 238 235 243 251 258 270 280 278 276 300 312 322 330 329 328 326 301 301 269 237 311 295 296 255 258 251 257 266 222 255 264 258 188 241 293 282 286 280 253 268 290 312 303 310 313 319 316 316 313
247 239 247 243 237 234 240 241 246 254 276 266 262 267 282 303 320 323 322 333 69 28 295 291 311 176 226 329 305 262 245 243 241 245 228 235 247 219 258 259 254 250 288 278 287 304 300 304 317 324 320 319 321 317
248 243 240 241 240 240 242 239 243 255 250 243 240 255 268 301 319 329 340 76 84 355 323 305 301 211 302 325 319 271 243 226 209 203 228 233 239 237 269 264 283 302 307 300 290 310 314 314 320 323 320 321 322 323
240 233 241 245 241 244 242 241 242 248 247 227 234 256 276 298 307 295 260 273 299 332 336 296 306 295 343 1 341 352 226 203 199 227 232 253 259 212 264 277 304 312 305 304 318 324 319 326 323 326 327 323 323 321
238 248 233 241 236 239 247 230 241 240 217 214 225 248 275 289 293 235 218 227 225 292 305 291 286 313 0 327 328 316 209 214 214 255 246 251 267 242 262 266 310 316 326 309 317 320 318 324 326 329 334 327 324 327
241 244 238 245 228 237 228 227 227 214 204 201 215 238 271 264 188 177 182 216 201 213 287 225 297 317 344 301 294 296 309 249 224 245 243 257 161 230 288 319 322 326 315 313 320 321 326 331 329 332 333 333 327 336
242 255 241 228 219 217 209 207 203 196 195 192 191 197 189 172 153 176 326 173 165 201 225 250 226 265 315 317 292 310 335 326 290 82 299 225 261 267 306 317 318 325 329 330 323 324 330 331 333 335 333 337 340 339
229 241 241 214 216 209 203 200 193 186 176 170 175 172 159 160 156 158 191 210 174 221 211 231 216 255 270 266 299 288 323 296 274 79 280 219 266 256 328 334 335 340 341 335 330 328 333 331 330 332 332 342 346 349
226 234 226 220 196 195 190 182 182 176 169 166 158 139 152 187 155 200 213 194 223 239 196 197 219 219 251 237 256 217 274 240 252 1 249 244 255 317 332 335 342 342 339 336 339 333 340 338 342 343 335 344 353 358
226 221 212 202 186 184 182 176 165 163 161 145 155 149 164 169 176 206 192 195 206 195 188 192 211 219 220 236 245 248 239 239 327 240 254 246 284 321 332 341 345 349 341 341 344 339 342 344 352 352 344 351 358 2
206 193 185 183 173 166 174 172 165 163 156 149 158 182 211 190 221 197 202 171 184 169 167 181 223 234 234 237 242 253 228 253 245 236 223 261 330 333 338 342 342 345 351 350 348 344 346 351 354 355 358 357 3 4
183 176 174 172 163 161 163 165 166 168 156 160 168 209 214 223 210 189 209 195 171 169 168 157 199 222 231 268 225 288 227 234 227 231 206 330 337 344 346 343 346 347 348 351 351 350 353 356 358 357 359 4 13 13
153 152 156 159 166 164 161 166 167 168 156 173 212 226 209 212 215 202 196 199 180 168 149 137 161 223 225 227 216 222 244 221 134 217 320 348 348 351 351 351 350 350 352 354 355 359 358 4 6 7 5 11 19 19
160 154 155 157 157 154 157 160 153 170 193 209 236 221 221 253 219 197 204 188 179 165 170 172 220 227 208 229 222 209 236 221 204 261 351 358 356 353 345 343 347 347 348 357 355 3 4 6 6 9 16 32 32 24
164 156 155 157 153 150 153 144 156 181 215 220 228 224 215 222 218 219 206 203 189 184 184 211 243 225 232 225 221 197 231 247 286 329 333 334 339 343 340 341 341 343 346 348 1 5 10 11 12 3 9 18 25 25
157 158 163 159 157 139 124 176 183 192 225 232 243 244 239 241 243 240 235 227 205 221 211 202 230 231 230 244 252 255 264 252 305 317 316 316 321 323 328 335 335 344 347 351 360 7 17 13 15 14 12 18 22 30
149 157 161 165 161 128 124 142 178 216 221 221 232 231 232 241 259 255 245 234 230 214 212 223 232 236 231 232 250 255 258 279 306 307 297 300 305 314 318 326 331 335 340 349 2 9 21 22 25 19 23 32 32 37
148 160 168 176 174 114 132 151 178 210 245 247 246 221 244 247 243 238 237 229 206 218 230 235 243 246 245 247 255 261 268 277 279 280 282 291 294 301 304 319 321 322 333 353 357 13 21 26 31 29 36 41 52 50
147 170 162 175 106 163 177 196 191 204 231 254 261 231 252 247 247 238 229 209 238 238 237 242 245 246 245 245 252 258 267 273 281 286 283 278 280 286 298 308 309 309 324 355 355 25 21 29 36 36 43 46 47 54
166 174 122 137 153 179 194 182 193 213 238 220 221 235 227 227 231 201 232 225 237 249 247 245 254 250 250 256 258 264 268 274 275 270 265 269 275 282 291 304 294 298 314 343 4 28 18 31 38 41 52 57 53 52
149 124 135 165 155 164 168 198 213 226 227 230 220 246 232 228 215 231 248 252 250 259 265 265 251 243 242 247 247 258 270 271 259 256 256 259 264 272 285 281 268 270 286 322 359 43 32 36 40 44 53 67 61 60
128 152 156 164 187 183 200 201 200 207 239 202 222 238 233 203 237 241 247 267 261 274 271 248 231 230 227 234 255 273 265 243 239 248 257 250 252 261 265 266 251 248 298 283 147 95 82 60 50 49 54 63 75 72
168 196 185 190 187 207 201 215 204 207 210 206 223 236 216 226 241 247 242 252 270 282 291 284 222 219 227 237 242 209 180 168 225 231 170 152 134 56 256 190 148 102 208 91 83 103 100 82 74 76 66 63 69 81
223 198 205 200 202 198 235 245 244 234 204 216 211 197 214 231 230 234 248 273 9 346 300 262 208 209 218 214 195 194 200 179 23 243 228 221 241 285 326 168 120 103 147 126 108 107 106 109 89 79 87 81 72 73
222 219 205 193 203 212 237 240 213 217 227 221 229 208 219 224 254 359 198 242 216 225 237 228 211 205 200 196 205 220 231 239 251 260 256 254 254 258 291 266 111 29 138 168 146 119 111 113 105 86 78 105 97 85
221 211 197 225 216 213 212 212 223 222 212 207 227 228 240 247 271 288 294 291 287 277 263 251 246 246 242 240 240 239 244 256 265 270 269 269 268 248 264 234 232 311 213 137 129 160 131 120 113 103 99 104 112 104
223 200 214 215 207 221 221 210 227 235 241 243 249 262 267 270 278 292 299 288 299 292 267 252 248 238 239 240 244 246 248 253 246 258 259 251 263 272 212 198 232 194 188 210 181 166 150 139 126 102 111 114 118 118
213 185 211 226 254 244 243 250 251 258 264 265 270 262 269 282 297 359 6 4 17 357 182 197 202 206 213 222 229 234 241 242 243 232 226 228 233 202 185 186 154 118 116 131 148 146 140 139 141 130 134 124 126 121
201 203 211 232 267 293 229 174 182 210 214 202 264 295 294 314 339 8 32 48 68 76 88 101 132 186 192 193 184 174 159 169 180 188 191 189 180 182 174 164 148 130 131 127 133 139 145 153 155 159 156 146 131 138
211 218 210 229 248 246 175 152 120 94 49 44 37 29 30 41 19 11 43 54 61 61 73 88 102 108 108 112 121 130 136 143 153 162 167 176 182 179 176 170 164 160 158 160 158 166 176 183 190 194 187 177 156 146
Wind_Speed_850mb
56 53 46 41 41 37 35 32 29 26 27 27 28 26 22 22 28 30 26 22 19 11 25 14 12 13 11 7 5 6 10 2 4 2 3 2 5 4 9 13 21 12 9 7 8 10 12 5 39 4 24 66 65 61
57 55 52 46 44 43 35 33 25 24 28 23 28 26 24 24 24 29 26 27 27 19 22 41 37 32 36 29 19 6 4 4 4 1 3 2 8 9 12 10 2 8 12 9 10 15 51 63 43 63 56 63 62 53
54 56 41 40 42 44 36 31 25 23 23 22 27 28 21 27 27 26 26 27 31 17 25 8 4 3 8 9 12 12 9 10 7 8 2 4 9 1 8 8 12 8 12 9 16 17 33 54 61 55 68 66 61 67
59 56 52 49 46 36 35 30 28 27 31 25 29 25 20 23 28 29 29 29 20 10 7 6 6 34 11 5 20 33 38 18 15 6 4 6 9 12 7 14 15 21 13 14 24 43 48 36 56 66 71 61 67 66
61 53 52 50 46 40 36 34 35 31 32 27 28 24 18 19 22 26 29 14 3 7 8 20 24 8 2 12 16 20 32 36 16 8 9 9 10 8 8 6 8 9 8 5 7 43 38 54 69 63 59 64 67 69
62 65 63 54 50 48 45 44 39 38 39 34 29 26 18 15 17 20 5 4 3 18 8 7 10 3 8 16 7 9 19 25 17 13 11 11 14 9 5 6 8 8 31 38 23 50 50 60 60 65 63 64 69 71
66 62 62 63 55 54 52 52 43 43 45 36 27 21 19 15 14 7 8 9 18 13 6 12 13 7 17 12 9 5 4 12 13 9 10 10 9 12 6 8 18 40 44 46 42 43 49 52 67 65 63 69 72 63
57 54 63 65 66 61 58 51 41 46 42 33 21 19 15 18 16 5 3 2 0 5 5 6 8 11 16 9 6 5 3 8 11 7 5 6 4 6 5 17 34 43 44 31 35 45 45 57 63 65 70 67 67 69
48 62 63 59 67 66 56 47 45 42 39 26 20 13 13 12 6 11 9 5 9 6 5 4 5 6 15 6 8 5 4 5 4 6 4 4 1 7 9 29 37 45 34 42 47 48 48 59 61 68 66 67 60 62
51 49 67 62 56 55 50 49 49 50 37 27 18 10 8 11 11 4 0 4 8 8 8 8 7 6 8 7 5 7 2 4 4 1 5 2 5 16 18 30 35 39 40 44 41 49 52 59 58 69 63 64 57 55
56 61 58 57 57 58 54 57 57 48 36 27 17 11 16 15 8 4 5 7 9 7 12 11 18 9 6 6 6 2 5 3 5 2 4 1 5 7 25 34 39 40 41 45 47 49 49 52 54 63 59 65 51 49
53 54 51 57 61 59 59 60 53 44 27 25 20 19 16 10 6 5 5 4 9 6 11 10 9 13 6 8 7 4 4 3 7 2 4 4 5 19 29 38 43 41 42 51 52 47 50 48 51 57 51 54 45 46
45 53 57 69 62 59 53 43 40 34 32 31 11 11 9 6 6 12 15 9 7 11 13 13 7 6 5 7 8 4 6 8 3 3 3 7 13 26 32 36 40 46 50 57 51 47 48 46 61 51 48 40 43 46
37 47 55 62 61 54 41 44 47 49 33 10 14 8 11 10 12 10 9 6 8 9 15 10 5 4 3 6 3 7 2 3 5 5 7 4 15 27 31 33 36 48 60 59 45 45 44 41 63 53 49 33 42 43
60 59 58 50 41 45 49 50 50 51 14 12 12 10 14 12 7 7 14 5 6 13 13 7 4 3 4 6 6 5 6 8 6 6 3 8 25 30 32 38 44 52 62 55 46 42 44 43 58 47 50 35 37 37
60 53 46 41 41 47 50 50 50 37 8 8 8 6 8 7 13 13 12 13 16 15 13 5 3 4 10 6 8 12 6 8 0 4 6 20 26 32 37 42 46 54 62 54 41 40 43 44 56 48 44 36 36 40
55 47 49 46 50 53 50 48 32 14 11 8 9 17 13 5 8 12 20 19 24 16 7 5 7 11 3 7 8 7 6 1 4 2 14 21 31 38 41 44 48 55 58 48 47 40 45 42 56 59 40 40 44 39
45 45 54 58 60 52 45 18 13 13 10 14 9 11 21 18 15 16 26 23 20 15 16 10 7 9 10 10 15 4 7 6 4 12 25 32 33 37 41 47 46 50 53 42 39 37 44 41 50 47 45 26 42 48
43 48 56 57 58 41 13 16 8 8 15 7 16 22 18 16 28 27 24 22 28 17 10 10 14 14 21 23 28 22 15 11 16 31 42 44 46 45 41 41 40 39 45 36 33 32 39 38 42 46 45 24 33 46
35 46 52 52 49 11 10 8 13 6 7 8 14 14 14 15 22 26 29 34 37 18 19 14 25 39 25 25 23 23 24 25 33 40 47 42 41 47 39 39 37 32 43 38 26 25 34 37 39 45 43 36 29 43
47 55 64 58 36 9 8 11 8 8 7 9 8 11 10 19 19 22 27 33 26 21 26 46 51 52 47 48 47 45 48 50 47 40 39 41 42 43 41 35 29 28 35 32 22 18 29 35 38 37 39 37 34 39
41 58 47 43 7 9 6 12 6 5 7 7 7 9 12 14 18 19 20 25 23 51 55 54 57 55 51 51 57 59 58 53 52 48 39 38 41 38 35 31 27 24 29 27 12 14 21 28 37 34 31 42 42 38
49 52 14 11 7 10 4 11 7 7 7 5 5 7 8 9 9 11 10 16 20 40 47 52 59 55 54 51 47 50 49 46 41 38 36 34 33 32 32 24 18 21 16 20 9 11 15 20 29 37 32 33 37 40
33 12 8 13 8 7 8 8 8 7 7 7 5 6 7 8 6 9 8 14 29 33 34 31 28 31 29 32 35 34 32 35 34 33 32 31 30 29 21 13 14 16 13 14 2 8 9 16 22 29 33 30 35 36
9 6 7 7 9 10 10 8 10 10 8 12 7 8 7 8 6 7 8 14 16 21 18 23 28 31 32 24 22 24 14 11 16 23 22 26 26 17 12 13 13 4 10 12 4 9 10 12 18 23 29 32 33 37
5 13 18 20 12 10 12 6 11 14 7 9 11 7 6 6 6 11 6 7 12 13 14 12 27 32 34 30 20 17 10 2 4 4 8 11 9 2 2 7 6 8 8 5 14 12 13 15 17 19 25 30 33 34
5 10 12 16 9 9 8 12 11 7 8 10 6 8 7 9 12 8 6 6 2 6 2 4 11 23 21 24 25 28 15 4 2 4 10 11 7 7 5 3 11 5 9 3 12 15 16 15 19 20 20 27 31 33
14 8 13 16 16 17 7 5 6 9 8 12 7 12 8 8 4 1 1 5 9 10 9 8 11 17 20 26 29 26 22 18 14 12 12 12 15 16 9 5 2 6 13 16 20 18 18 15 19 21 21 22 27 29
11 11 15 14 16 14 19 17 14 17 17 17 6 6 7 8 10 21 34 51 70 65 58 49 44 39 38 36 34 33 33 30 27 23 22 20 13 14 17 15 10 6 3 13 23 19 15 14 16 18 20 24 26 25
12 24 14 14 11 13 18 29 15 18 22 27 29 30 39 46 59 60 45 31 38 36 32 35 39 47 51 47 48 49 49 46 42 36 32 28 23 18 16 22 11 9 7 10 23 21 22 19 17 20 21 20 21 20
8 20 12 11 9 17 34 40 39 35 37 34 37 37 40 38 23 18 36 34 11 8 6 18 23 23 30 40 49 51 54 53 49 39 32 27 21 18 20 18 19 14 17 20 36 32 26 21 20 19 20 16 18 17
12 16 8 6 7 8 2 7 9 7 5 3 1 3 5 5 8 21 46 38 32 25 16 15 12 19 23 20 19 19 20 20 25 29 29 30 27 25 28 23 20 20 29 27 25 25 23 22 20 19 17 13 9 9
10 11 13 7 7 4 8 7 4 4 8 9 16 16 16 9 12 36 40 40 40 36 30 24 23 29 30 25 21 20 23 25 28 31 31 26 25 30 29 24 25 24 26 28 26 21 19 20 19 20 18 14 10 11
Wind_Direction_850mb
248 252 255 263 264 257 269 280 284 294 294 305 308 314 323 340 345 346 347 344 343 287 284 253 246 251 257 222 270 332 299 167 284 326 305 43 281 323 287 282 298 293 298 274 265 260 277 14 328 290 297 301 301 299
248 250 249 251 253 248 263 268 270 286 295 298 292 299 310 322 336 338 339 334 328 296 274 292 287 276 253 249 258 253 271 283 293 255 235 258 265 270 272 281 216 262 233 287 230 269 295 304 305 303 305 298 300 310
243 242 245 245 247 247 250 245 257 267 276 288 285 287 301 318 327 335 335 332 333 312 308 309 118 154 354 288 230 227 238 210 233 226 310 282 273 144 274 256 299 270 266 238 276 271 290 310 308 311 310 311 314 316
241 243 248 249 246 238 235 243 251 258 270 280 278 276 300 312 322 330 329 328 326 301 301 269 237 311 295 296 255 258 251 257 266 222 255 264 258 188 241 293 282 286 280 253 268 290 312 303 310 313 319 316 316 313
247 239 247 243 237 234 240 241 246 254 276 266 262 267 282 303 320 323 322 333 69 28 295 291 311 176 226 329 305 262 245 243 241 245 228 235 247 219 258 259 254 250 288 278 287 304 300 304 317 324 320 319 321 317
248 243 240 241 240 240 242 239 243 255 250 243 240 255 268 301 319 329 340 76 84 355 323 305 301 211 302 325 319 271 243 226 209 203 228 233 239 237 269 264 283 302 307 300 290 310 314 314 320 323 320 321 322 323
240 233 241 245 241 244 242 241 242 248 247 227 234 256 276 298 307 295 260 273 299 332 336 296 306 295 343 1 341 352 226 203 199 227 232 253 259 212 264 277 304 312 305 304 318 324 319 326 323 326 327 323 323 321
238 248 233 241 236 239 247 230 241 240 217 214 225 248 275 289 293 235 218 227 225 292 305 291 286 313 0 327 328 316 209 214 214 255 246 251 267 242 262 266 310 316 326 309 317 320 318 324 326 329 334 327 324 327
241 244 238 245 228 237 228 227 227 214 204 201 215 238 271 264 188 177 182 216 201 213 287 225 297 317 344 301 294 296 309 249 224 245 243 257 161 230 288 319 322 326 315 313 320 321 326 331 329 332 333 333 327 336
242 255 241 228 219 217 209 207 203 196 195 192 191 197 189 172 153 176 326 173 165 201 225 250 226 265 315 317 292 310 335 326 290 82 299 225 261 267 306 317 318 325 329 330 323 324 330 331 333 335 333 337 340 339
229 241 241 214 216 209 203 200 193 186 176 170 175 172 159 160 156 158 191 210 174 221 211 231 216 255 270 266 299 288 323 296 274 79 280 219 266 256 328 334 335 340 341 335 330 328 333 331 330 332 332 342 346 349
226 234 226 220 196 195 190 182 182 176 169 166 158 139 152 187 155 200 213 194 223 239 196 197 219 219 251 237 256 217 274 240 252 1 249 244 255 317 332 335 342 342 339 336 339 333 340 338 342 343 335 344 353 358
226 221 212 202 186 184 182 176 165 163 161 145 155 149 164 169 176 206 192 195 206 195 188 192 211 219 220 236 245 248 239 239 327 240 254 246 284 321 332 341 345 349 341 341 344 339 342 344 352 352 344 351 358 2
206 193 185 183 173 166 174 172 165 163 156 149 158 182 211 190 221 197 202 171 184 169 167 181 223 234 234 237 242 253 228 253 245 236 223 261 330 333 338 342 342 345 351 350 348 344 346 351 354 355 358 357 3 4
183 176 174 172 163 161 163 165 166 168 156 160 168 209 214 223 210 189 209 195 171 169 168 157 199 222 231 268 225 288 227 234 227 231 206 330 337 344 346 343 346 347 348 351 351 350 353 356 358 357 359 4 13 13
153 152 156 159 166 164 161 166 167 168 156 173 212 226 209 212 215 202 196 199 180 168 149 137 161 223 225 227 216 222 244 221 134 217 320 348 348 351 351 351 350 350 352 354 355 359 358 4 6 7 5 11 19 19
160 154 155 157 157 154 157 160 153 170 193 209 236 221 221 253 219 197 204 188 179 165 170 172 220 227 208 229 222 209 236 221 204 261 351 358 356 353 345 343 347 347 348 357 355 3 4 6 6 9 16 32 32 24
164 156 155 157 153 150 153 144 156 181 215 220 228 224 215 222 218 219 206 203 189 184 184 211 243 225 232 225 221 197 231 247 286 329 333 334 339 343 340 341 341 343 346 348 1 5 10 11 12 3 9 18 25 25
157 158 163 159 157 139 124 176 183 192 225 232 243 244 239 241 243 240 235 227 205 221 211 202 230 231 230 244 252 255 264 252 305 317 316 316 321 323 328 335 335 344 347 351 360 7 17 13 15 14 12 18 22 30
149 157 161 165 161 128 124 142 178 216 221 221 232 231 232 241 259 255 245 234 230 214 212 223 232 236 231 232 250 255 258 279 306 307 297 300 305 314 318 326 331 335 340 349 2 9 21 22 25 19 23 32 32 37
148 160 168 176 174 114 132 151 178 210 245 247 246 221 244 247 243 238 237 229 206 218 230 235 243 246 245 247 255 261 268 277 279 280 282 291 294 301 304 319 321 322 333 353 357 13 21 26 31 29 36 41 52 50
147 170 162 175 106 163 177 196 191 204 231 254 261 231 252 247 247 238 229 209 238 238 237 242 245 246 245 245 252 258 267 273 281 286 283 278 280 286 298 308 309 309 324 355 355 25 21 29 36 36 43 46 47 54
166 174 122 137 153 179 194 182 193 213 238 220 221 235 227 227 231 201 232 225 237 249 247 245 254 250 250 256 258 264 268 274 275 270 265 269 275 282 291 304 294 298 314 343 4 28 18 31 38 41 52 57 53 52
149 124 135 165 155 164 168 198 213 226 227 230 220 246 232 228 215 231 248 252 250 259 265 265 251 243 242 247 247 258 270 271 259 256 256 259 264 272 285 281 268 270 286 322 359 43 32 36 40 44 53 67 61 60
128 152 156 164 187 183 200 201 200 207 239 202 222 238 233 203 237 241 247 267 261 274 271 248 231 230 227 234 255 273 265 243 239 248 257 250 252 261 265 266 251 248 298 283 147 95 82 60 50 49 54 63 75 72
168 196 185 190 187 207 201 215 204 207 210 206 223 236 216 226 241 247 242 252 270 282 291 284 222 219 227 237 242 209 180 168 225 231 170 152 134 56 256 190 148 102 208 91 83 103 100 82 74 76 66 63 69 81
223 198 205 200 202 198 235 245 244 234 204 216 211 197 214 231 230 234 248 273 9 346 300 262 208 209 218 214 195 194 200 179 23 243 228 221 241 285 326 168 120 103 147 126 108 107 106 109 89 79 87 81 72 73
222 219 205 193 203 212 237 240 213 217 227 221 229 208 219 224 254 359 198 242 216 225 237 228 211 205 200 196 205 220 231 239 251 260 256 254 254 258 291 266 111 29 138 168 146 119 111 113 105 86 78 105 97 85
221 211 197 225 216 213 212 212 223 222 212 207 227 228 240 247 271 288 294 291 287 277 263 251 246 246 242 240 240 239 244 256 265 270 269 269 268 248 264 234 232 311 213 137 129 160 131 120 113 103 99 104 112 104
223 200 214 215 207 221 221 210 227 235 241 243 249 262 267 270 278 292 299 288 299 292 267 252 248 238 239 240 244 246 248 253 246 258 259 251 263 272 212 198 232 194 188 210 181 166 150 139 126 102 111 114 118 118
213 185 211 226 254 244 243 250 251 258 264 265 270 262 269 282 297 359 6 4 17 357 182 197 202 206 213 222 229 234 241 242 243 232 226 228 233 202 185 186 154 118 116 131 148 146 140 139 141 130 134 124 126 121
201 203 211 232 267 293 229 174 182 210 214 202 264 295 294 314 339 8 32 48 68 76 88 101 132 186 192 193 184 174 159 169 180 188 191 189 180 182 174 164 148 130 131 127 133 139 145 153 155 159 156 146 131 138
211 218 210 229 248 246 175 152 120 94 49 44 37 29 30 41 19 11 43 54 61 61 73 88 102 108 108 112 121 130 136 143 153 162 167 176 182 179 176 170 164 160 158 160 158 166 176 183 190 194 187 177 156 146